Regional Weather Roundup
Issued by NWS

Home | Current Version | Previous Version | Graphics & Text | Print | Product List | Glossary On
Versions: 1 2 3 4 5 6 7 8 9 10 11 12 13 14 15 16 17 18 19 20 21 22 23 24 25 26 27 28 29 30 31 32 33 34 35 36 37 38 39 40 41 42 43 44 45 46 47 48 49 50
000
ASUS43 KMPX 291510
RWRMN
WEATHER ROUNDUP FOR MINNESOTA
NATIONAL WEATHER SERVICE TWIN CITIES/CHANHASSEN MN
1000 AM CDT FRI AUG 29 2014


NOTE: "FAIR" INDICATES FEW OR NO CLOUDS BELOW 12,000 FEET WITH NO
SIGNIFICANT WEATHER AND/OR OBSTRUCTIONS TO VISIBILITY. N/A MEANS
CURRENT SKY AND/OR WEATHER CONDITIONS ARE NOT AVAILABLE.

MNZ060>063-068>070-291600-
   Twin Cities Metro

CITY           SKY/WX    TMP DP  RH WIND       PRES   REMARKS
TWIN CITIES    LGT RAIN  71  68  90 S7        29.80R
ST PAUL        PTSUNNY   71  68  90 S9        29.81R
CRYSTAL        PTSUNNY   73  67  81 S10       29.78R
BLAINE         PTSUNNY   73  72  94 S12       29.79S
LAKEVILLE      PTSUNNY   72  68  88 S5        29.81S
EDEN PRAIRIE   LGT RAIN  71  68  90 S8        29.79R
SOUTH ST PAUL  CLOUDY    71  68  89 SE6       29.80S
LAKE ELMO      CLOUDY    72  68  88 S9        29.82S
$$
MNZ001>005-007-008-013>017-022>024-027-028-291600-
   Northwest Minnesota

CITY           SKY/WX    TMP DP  RH WIND       PRES   REMARKS
BEMIDJI        DRIZZLE   64  64  97 SE3       29.79F
HALLOCK        CLOUDY    66  64  94 S5        29.75S
ROSEAU         PTSUNNY   68  63  83 SE3       29.77S
WARROAD        CLOUDY    66  63  88 SE3       29.78F
THIEF RVR FALL CLOUDY    64  64 100 SE5       29.78S
CROOKSTON      CLOUDY    66  64  94 CALM      29.77S
FOSSTON        CLOUDY    64  63  94 CALM      29.79S
DETROIT LAKES  CLOUDY    64  64 100 S5        29.80R FOG
MOORHEAD       CLOUDY    66  66 100 CALM      29.78S
PARK RAPIDS    CLOUDY    64  64 100 S3        29.79S FOG
MAHNOMEN       RAIN      65  65  97 CALM      29.78S
$$
MNZ006-009>011-018-025>026-291600-
   North Central Minnesota

CITY           SKY/WX    TMP DP  RH WIND       PRES   REMARKS
BAUDETTE       CLOUDY    64  62  93 SE5       29.79S FOG
FLAG ISLAND    CLOUDY    66  63  88 S5        29.76F
INTL FALLS     CLOUDY    63  62  97 SE8       29.81F
WASKISH        CLOUDY    64  63  94 CALM      29.80S FOG
BIG FORK       CLOUDY    63  61  94 CALM      29.81F
LONGVILLE      CLOUDY    64  63  94 CALM      29.79S FOG
GRAND RAPIDS   CLOUDY    63  59  88 E3        29.80F
CRANE LAKE     RAIN      61  59  94 CALM      29.84F
ORR            DRIZZLE   61  59  94 CALM      29.80S
COOK           DRIZZLE   61  61 100 CALM      29.82F
WALKER         CLOUDY    64  63  97 CALM      29.79S FOG
$$
MNZ012-019>021-037-291600-
   Northeast Minnesota

CITY           SKY/WX    TMP DP  RH WIND       PRES   REMARKS
DULUTH         LGT RAIN  61  59  93 SE12      29.80F VSB 1
ELY            HVY RAIN  59  57  94 CALM      29.84R
HIBBING        RAIN      62  60  93 E7        29.81F FOG
EVELETH        RAIN      59  59 100 E5        29.83S
DULUTH HARBOR  CLOUDY    63  61  94 E8        29.80F
TWO HARBORS    DRIZZLE   61  55  82 E3        29.80F
SILVER BAY     LGT RAIN  57  57 100 E6        29.81F
GRAND MARAIS     N/A     62  59  90 NE10      29.86F
G MARAIS ARPRT DRIZZLE   57  54  88 E5        29.89F
$$
MNZ029>031-032-039>041-046>048-054>057-064-291600-
   West Central Minnesota

CITY           SKY/WX    TMP DP  RH WIND       PRES   REMARKS
FERGUS FALLS   RAIN      66  64  94 CALM      29.78S
WHEATON        CLOUDY    64  63  94 CALM      29.81R
MORRIS         DRIZZLE   66  66 100 CALM      29.78S
ALEXANDRIA     CLOUDY    66  65  96 CALM      29.80S
ELBOW LAKE     DRIZZLE   65  65  99 CALM      29.78S
WADENA         LGT RAIN  64  63  94 CALM      29.79R
GLENWOOD       RAIN      66  64  94 N3        29.79F
APPLETON       LGT RAIN  68  64  88 SW5       29.78R
BENSON         CLOUDY    66  66 100 CALM      29.78S
ORTONVILLE     CLOUDY    66  64  94 CALM      29.79R FOG
MADISON        DRIZZLE   70  68  94 W5        29.79R
WILLMAR        FAIR      70  66  88 CALM      29.79S
$$
MNZ033>034-036-042>043-049>051-058-059-291600-
   Central Minnesota

CITY           SKY/WX    TMP DP  RH WIND       PRES   REMARKS
ST CLOUD       LGT RAIN  69  67  93 CALM      29.78S FOG
SAUK CENTRE    RAIN      65  65  99 CALM      29.79S
PAYNESVILLE    RAIN      64  64 100 SE5       29.80R
AITKIN         MIX PCPN  66  61  82 CALM      29.77S
PINE RIVER     CLOUDY    64  64 100 CALM      29.83R
BRAINERD       LGT RAIN  64  63  96 CALM      29.79R FOG
STAPLES        LGT RAIN  63  63 100 CALM      29.80R
LONG PRAIRIE   RAIN      63  63 100 CALM      29.80R
LITTLE FALLS   CLOUDY    64  63  94 CALM      29.79R
LITCHFIELD     PTSUNNY   70  70 100 CALM      29.79F
BUFFALO        CLOUDY    70  66  88 SW3       29.79S THUNDER
MAPLE LAKE     TSTM      70  68  95 SW10      29.80R
$$
MNZ037-044-045-052-053-291600-
   East Central Minnesota

CITY           SKY/WX    TMP DP  RH WIND       PRES   REMARKS
PRINCETON      CLOUDY    72  70  94 S12       29.79R
MORA           CLOUDY    63  61  94 CALM      29.81R
CAMBRIDGE      PTSUNNY   72  64  78 S7        29.77R
RUSH CITY      CLOUDY    66  65  95 E5        29.80R
MOOSE LAKE     CLOUDY    63  61  94 CALM      29.79S
HINCKLEY       CLOUDY    64  64 100 S7        29.80R
CLOQUET        RAIN      61  59  94 E5        29.80F
MCGREGOR       CLOUDY    63  61  94 SE5       29.79F
$$
MNZ071>073-080-081-089-090-097-098-291600-
   Southwest Minnesota

CITY           SKY/WX    TMP DP  RH WIND       PRES   REMARKS
MONTEVIDEO     CLOUDY    68  68 100 N5        29.79R
GRANITE FALLS  CLOUDY    69  69 100 CALM      29.79S FOG
CANBY          RAIN      67  66  99 NW5       29.80R
MARSHALL       CLOUDY    70  66  88 N6        29.78R
REDWOOD FALLS  CLOUDY    73  68  84 SW10      29.78R
OLIVIA         CLOUDY    72  68  88 SW6       29.77S
PIPESTONE      CLOUDY    70  68  94 SW6       29.80S
WINDOM         CLOUDY    72  66  83 S12       29.81R
WORTHINGTON    CLOUDY    70  66  88 S10       29.82S
JACKSON        CLOUDY    72  64  78 S10G17    29.82S
TRACY          CLOUDY    73  70  89 SW8       29.80R FOG
SLAYTON        CLOUDY    70  68  95 CALM      29.82R FOG
$$
MNZ065>067-074>077-082>085-091>093-291600-
   South Central Minnesota

CITY           SKY/WX    TMP DP  RH WIND       PRES   REMARKS
MANKATO        PTSUNNY   73  64  73 S8        29.80S
NEW ULM        PTSUNNY   72  70  94 SW8       29.80R
ST JAMES       PTSUNNY   73  66  78 S8        29.81R
FAIRMONT       CLOUDY    70  64  83 S8        29.81S
GLENCOE        PTSUNNY   73  66  81 S8        29.79R
FARIBAULT      PTSUNNY   73  66  78 S6        29.82S
OWATONNA       CLOUDY    73  66  78 S7        29.82S
WASECA         CLOUDY    72  63  73 S7        29.84R
ALBERT LEA     CLOUDY    73  70  88 S5        29.82S
$$
MNZ078>079-086>088-094>096-291600-
   Southeast Minnesota

CITY           SKY/WX    TMP DP  RH WIND       PRES   REMARKS
ROCHESTER      MOSUNNY   74  68  81 S8        29.85S
RED WING       CLOUDY    72  70  94 SE6       29.82S
STANTON        PTSUNNY   74  67  80 S12       29.81R
DODGE CENTER   PTSUNNY   75  70  83 S12       29.84S
WINONA         PTSUNNY   73  70  88 SE6       29.84S
AUSTIN         PTSUNNY   73  66  78 S12       29.83S
PRESTON        MOSUNNY   73  71  93 S3        29.86S
$$
ABBREVIATIONS USED IN REMARKS
   TC - TEMPERATURES IN CELSIUS
  WCI - WIND CHILL INDEX
   HX - HEAT INDEX
  VSB - VISIBILITY
$$


USA.gov is the U.S. government's official web portal to all federal, state and local government web resources and services.